User: anonymous   Login
Location: Caltech
(34.1382°N, 118.1253°W)
Time: 01:11:18
(UTC-07:00)
Language:

Sapphire - Orbit

View from above orbital plane
View from above orbital plane
View from above satellite
View from above satellite

Ground track
Ground track

The orbit data is extracted from the following two-line orbital elements,

1 26932U 01043D   15115.01134987  .00000145  00000-0  88082-4 0  9996
2 26932 067.0560 315.5526 0007232 251.4740 108.5575 14.30134679708231
Epoch (UTC): 25 April 2015 00:16:20
Eccentricity: 0.0007232
inclination: 67.0560°
perigee height: 786 km
apogee height: 796 km
right ascension of ascending node: 315.5526°
argument of perigee: 251.4740°
revolutions per day: 14.30134679
mean anomaly at epoch: 108.5575°
orbit number at epoch: 70823

The dashed part of the orbit path shows where the satellite is in the earth's shadow,  

DLR